| time (UTC) | temp F | wind direction | speed knots | gust knots | rain 1hr in | rain 24hr in | rain mn in | humidity % | barometer mb |
| 20260502163137 | 59 | 221 | 6.1 | 7.0 | 0.00 | 0.00 | 0.00 | 81 | 1010.5 |
| 20260502162127 | 59 | 217 | 4.3 | 7.8 | 0.00 | 0.00 | 0.00 | 82 | 1010.5 |
| 20260502161128 | 59 | 241 | 6.1 | 9.6 | 0.00 | 0.00 | 0.00 | 81 | 1010.7 |
| 20260502160146 | 60 | 220 | 7.8 | 10.4 | 0.00 | 0.00 | 0.00 | 79 | 1010.7 |
| 20260502152204 | 63 | 163 | 7.0 | 9.6 | 0.00 | 0.00 | 0.00 | 76 | 1010.8 |
| 20260502151206 | 62 | 194 | 6.1 | 12.2 | 0.00 | 0.00 | 0.00 | 76 | 1010.8 |
| 20260502150138 | 62 | 232 | 5.2 | 11.3 | 0.00 | 0.00 | 0.00 | 77 | 1010.9 |
| 20260502130130 | 62 | 217 | 8.7 | 14.8 | 0.00 | 0.00 | 0.00 | 76 | 1012.5 |
| 20260502123129 | 64 | 201 | 13.0 | 16.5 | 0.00 | 0.00 | 0.00 | 73 | 1012.7 |
| 20260502122130 | 64 | 225 | 7.0 | 13.0 | 0.00 | 0.00 | 0.00 | 73 | 1012.8 |
| 20260502121140 | 64 | 197 | 8.7 | 12.2 | 0.00 | 0.00 | 0.00 | 72 | 1012.9 |
| 20260502120132 | 64 | 235 | 9.6 | 13.9 | 0.00 | 0.00 | 0.00 | 73 | 1013.0 |
| 20260502115149 | 64 | 196 | 10.4 | 13.9 | 0.00 | 0.00 | 0.00 | 73 | 1013.0 |
| 20260502114142 | 63 | 212 | 7.0 | 14.8 | 0.00 | 0.00 | 0.00 | 73 | 1013.1 |
| 20260502113142 | 64 | 217 | 8.7 | 13.0 | 0.00 | 0.00 | 0.00 | 74 | 1013.3 |
| 20260502112135 | 63 | 242 | 7.8 | 12.2 | 0.00 | 0.00 | 0.00 | 73 | 1013.4 |
| 20260502111126 | 63 | 197 | 7.8 | 13.9 | 0.00 | 0.00 | 0.00 | 72 | 1013.5 |
| 20260502110145 | 63 | 215 | 9.6 | 12.2 | 0.00 | 0.00 | 0.00 | 73 | 1013.6 |
| 20260502105136 | 62 | 228 | 7.8 | 13.9 | 0.00 | 0.00 | 0.00 | 73 | 1013.6 |
| 20260502104128 | 62 | 234 | 9.6 | 16.5 | 0.00 | 0.00 | 0.00 | 72 | 1013.7 |
| 20260502103130 | 62 | 227 | 9.6 | 13.9 | 0.00 | 0.00 | 0.00 | 70 | 1013.8 |
| 20260502102135 | 62 | 244 | 7.8 | 13.0 | 0.00 | 0.00 | 0.00 | 72 | 1014.0 |
| 20260502101154 | 62 | 210 | 6.1 | 13.0 | 0.00 | 0.00 | 0.00 | 73 | 1014.0 |
| 20260502100143 | 62 | 196 | 7.0 | 13.0 | 0.00 | 0.00 | 0.00 | 72 | 1014.0 |
| 20260502091143 | 60 | 204 | 7.8 | 16.5 | 0.00 | 0.00 | 0.00 | 74 | 1014.5 |
| 20260502090133 | 60 | 222 | 10.4 | 15.6 | 0.00 | 0.00 | 0.00 | 75 | 1014.7 |
| 20260502071145 | 57 | 189 | 7.8 | 14.8 | 0.00 | 0.00 | 0.00 | 79 | 1015.0 |
| 20260502070145 | 57 | 190 | 7.8 | 14.8 | 0.00 | 0.00 | 0.00 | 78 | 1015.0 |
| 20260502065137 | 57 | 178 | 7.8 | 17.4 | 0.00 | 0.00 | 0.00 | 79 | 1015.1 |
| 20260502064144 | 57 | 186 | 7.8 | 12.2 | 0.00 | 0.00 | 0.00 | 79 | 1015.1 |
| 20260502063140 | 57 | 259 | 7.0 | 15.6 | 0.00 | 0.00 | 0.00 | 79 | 1015.2 |
| 20260502062130 | 57 | 199 | 7.8 | 11.3 | 0.00 | 0.00 | 0.00 | 79 | 1015.3 |
| 20260502061144 | 56 | 145 | 5.2 | 12.2 | 0.00 | 0.00 | 0.00 | 82 | 1015.3 |
| 20260502060128 | 55 | 203 | 6.1 | 10.4 | 0.00 | 0.00 | 0.00 | 84 | 1015.4 |
| 20260502055129 | 55 | 187 | 5.2 | 9.6 | 0.00 | 0.00 | 0.00 | 88 | 1015.3 |
| 20260502054138 | 53 | 172 | 5.2 | 8.7 | 0.00 | 0.00 | 0.00 | 93 | 1015.4 |
| 20260502053131 | 52 | 192 | 3.5 | 8.7 | 0.00 | 0.00 | 0.00 | 96 | 1015.4 |
| 20260502052133 | 51 | 145 | 2.6 | 7.8 | 0.00 | 0.00 | 0.00 | 97 | 1015.5 |
| 20260502051151 | 50 | 166 | 2.6 | 6.1 | 0.00 | 0.00 | 0.00 | 98 | 1015.6 |
| 20260502050138 | 48 | 190 | 2.6 | 4.3 | 0.00 | 0.00 | 0.00 | 98 | 1015.7 |
| 20260502045125 | 46 | 169 | 0.9 | 3.5 | 0.00 | 0.00 | 0.00 | 98 | 1015.8 |
| 20260502044126 | 45 | 178 | 1.7 | 5.2 | 0.00 | 0.00 | 0.00 | 97 | 1016.0 |
| 20260502043131 | 45 | 138 | 1.7 | 3.5 | 0.00 | 0.00 | 0.00 | 97 | 1016.2 |
| 20260502042134 | 45 | 95 | 0.9 | 2.6 | 0.00 | 0.00 | 0.00 | 96 | 1016.4 |
| 20260502041126 | 45 | 117 | 0.9 | 5.2 | 0.00 | 0.00 | 0.00 | 97 | 1016.5 |
| 20260502040146 | 45 | 143 | 1.7 | 4.3 | 0.00 | 0.00 | 0.00 | 96 | 1016.6 |
| 20260502035138 | 45 | 90 | 1.7 | 3.5 | 0.00 | 0.00 | 0.00 | 97 | 1016.6 |
| 20260502034129 | 45 | 105 | 1.7 | 5.2 | 0.00 | 0.00 | 0.00 | 97 | 1016.8 |
| 20260502033149 | 45 | 107 | 1.7 | 5.2 | 0.00 | 0.00 | 0.00 | 97 | 1017.0 |
| 20260502032140 | 43 | 131 | 2.6 | 4.3 | 0.00 | 0.00 | 0.00 | 96 | 1017.3 |
| 20260502031134 | 43 | 147 | 1.7 | 3.5 | 0.00 | 0.00 | 0.00 | 96 | 1017.4 |
| 20260502030151 | 43 | 122 | 1.7 | 3.5 | 0.00 | 0.00 | 0.00 | 96 | 1017.6 |
| 20260502025141 | 43 | 136 | 1.7 | 2.6 | 0.00 | 0.00 | 0.00 | 96 | 1017.7 |
| 20260502024143 | 43 | 125 | 0.9 | 2.6 | 0.00 | 0.00 | 0.00 | 96 | 1017.8 |
| 20260502023135 | 43 | 125 | 1.7 | 2.6 | 0.00 | 0.00 | 0.00 | 95 | 1017.9 |
| 20260502022128 | 43 | 148 | 0.9 | 2.6 | 0.00 | 0.00 | 0.00 | 95 | 1018.1 |
| 20260502021146 | 43 | 146 | 0.9 | 3.5 | 0.00 | 0.00 | 0.00 | 95 | 1018.2 |
| 20260502020140 | 43 | 142 | 1.7 | 2.6 | 0.00 | 0.00 | 0.00 | 95 | 1018.4 |
| 20260502015131 | 43 | 157 | 0.9 | 0.9 | 0.00 | 0.04 | 0.00 | 94 | 1018.5 |
| 20260502014152 | 44 | 157 | 0.0 | 5.2 | 0.00 | 0.04 | 0.00 | 94 | 1018.7 |
| 20260502013144 | 44 | 155 | 1.7 | 3.5 | 0.00 | 0.04 | 0.00 | 95 | 1018.8 |
| 20260502012133 | 44 | 127 | 2.6 | 5.2 | 0.00 | 0.04 | 0.00 | 95 | 1018.9 |
| 20260502011135 | 43 | 136 | 2.6 | 3.5 | 0.00 | 0.04 | 0.00 | 94 | 1018.9 |
| 20260502010126 | 44 | 159 | 0.0 | 2.6 | 0.00 | 0.04 | 0.00 | 94 | 1019.2 |
| 20260502005146 | 44 | 124 | 0.0 | 2.6 | 0.00 | 0.04 | 0.00 | 94 | 1019.3 |
| 20260502004138 | 44 | 167 | 1.7 | 5.2 | 0.00 | 0.04 | 0.00 | 94 | 1019.3 |
| 20260502003159 | 44 | 163 | 0.9 | 5.2 | 0.00 | 0.04 | 0.00 | 94 | 1019.5 |
| 20260502002132 | 44 | 167 | 1.7 | 6.1 | 0.00 | 0.04 | 0.00 | 94 | 1019.5 |
| 20260502001154 | 44 | 173 | 2.6 | 6.1 | 0.00 | 0.04 | 0.00 | 93 | 1019.7 |
| 20260502000145 | 43 | 164 | 1.7 | 4.3 | 0.00 | 0.04 | 0.00 | 93 | 1019.7 |
| 20260501235140 | 43 | 163 | 2.6 | 4.3 | 0.00 | 0.04 | 0.00 | 92 | 1019.8 |
| 20260501234131 | 44 | 167 | 2.6 | 4.3 | 0.00 | 0.04 | 0.00 | 92 | 1019.9 |
| 20260501233143 | 44 | 152 | 0.9 | 2.6 | 0.00 | 0.04 | 0.00 | 92 | 1020.1 |
| 20260501232204 | 45 | 163 | 0.9 | 3.5 | 0.00 | 0.04 | 0.00 | 92 | 1020.1 |
| 20260501231204 | 45 | 169 | 1.7 | 3.5 | 0.00 | 0.04 | 0.00 | 91 | 1020.3 |
| 20260501230153 | 45 | 151 | 0.9 | 4.3 | 0.00 | 0.04 | 0.00 | 91 | 1020.5 |
| 20260501225132 | 45 | 168 | 2.6 | 4.3 | 0.00 | 0.04 | 0.01 | 90 | 1020.6 |
| 20260501224139 | 45 | 176 | 1.7 | 4.3 | 0.00 | 0.04 | 0.01 | 90 | 1020.8 |
| 20260501223202 | 46 | 214 | 2.6 | 3.5 | 0.00 | 0.04 | 0.01 | 89 | 1020.9 |
| 20260501222135 | 46 | 228 | 1.7 | 3.5 | 0.00 | 0.04 | 0.01 | 88 | 1020.9 |
| 20260501221139 | 47 | 250 | 1.7 | 3.5 | 0.00 | 0.04 | 0.01 | 86 | 1020.9 |
| 20260501220206 | 49 | 229 | 1.7 | 6.1 | 0.00 | 0.04 | 0.01 | 86 | 1021.0 |
| 20260501215135 | 49 | 233 | 3.5 | 7.0 | 0.00 | 0.04 | 0.01 | 89 | 1021.0 |
| 20260501214127 | 46 | 223 | 3.5 | 5.2 | 0.00 | 0.04 | 0.01 | 83 | 1021.1 |
| 20260501213128 | 46 | 250 | 0.9 | 1.7 | 0.00 | 0.04 | 0.01 | 82 | 1021.2 |
| 20260501212137 | 47 | 182 | 0.0 | 2.6 | 0.00 | 0.04 | 0.01 | 82 | 1021.2 |
| 20260501211140 | 47 | 215 | 0.0 | 1.7 | 0.00 | 0.04 | 0.01 | 81 | 1021.3 |
| 20260501210155 | 48 | 215 | 0.9 | 4.3 | 0.00 | 0.04 | 0.01 | 79 | 1021.3 |
| 20260501205158 | 49 | 196 | 1.7 | 6.1 | 0.00 | 0.04 | 0.01 | 77 | 1021.3 |
| 20260501204128 | 50 | 194 | 2.6 | 5.2 | 0.00 | 0.04 | 0.01 | 75 | 1021.4 |
| 20260501203150 | 52 | 175 | 2.6 | 5.2 | 0.00 | 0.04 | 0.01 | 74 | 1021.5 |
| 20260501202141 | 53 | 200 | 3.5 | 7.8 | 0.00 | 0.04 | 0.01 | 72 | 1021.6 |
| 20260501201145 | 53 | 200 | 2.6 | 7.0 | 0.00 | 0.04 | 0.01 | 72 | 1021.6 |
| 20260501200156 | 53 | 205 | 3.5 | 9.6 | 0.00 | 0.04 | 0.01 | 73 | 1021.7 |
| 20260501195138 | 52 | 203 | 4.3 | 7.0 | 0.00 | 0.04 | 0.01 | 73 | 1021.8 |
| 20260501194129 | 53 | 182 | 2.6 | 4.3 | 0.00 | 0.04 | 0.01 | 72 | 1021.8 |
| 20260501193130 | 53 | 202 | 1.7 | 7.0 | 0.00 | 0.04 | 0.01 | 73 | 1021.9 |
| 20260501192142 | 53 | 191 | 1.7 | 5.2 | 0.00 | 0.04 | 0.01 | 72 | 1022.0 |
| 20260501191145 | 54 | 145 | 2.6 | 7.8 | 0.00 | 0.04 | 0.01 | 72 | 1022.2 |
| 20260501190158 | 54 | 178 | 2.6 | 7.0 | 0.00 | 0.04 | 0.01 | 73 | 1022.2 |
| 20260501185126 | 54 | 191 | 3.5 | 7.8 | 0.00 | 0.04 | 0.01 | 73 | 1022.3 |
| 20260501184143 | 54 | 222 | 3.5 | 7.0 | 0.00 | 0.04 | 0.01 | 72 | 1022.5 |
| 20260501183145 | 55 | 247 | 4.3 | 9.6 | 0.00 | 0.04 | 0.01 | 72 | 1022.4 |
| 20260501182138 | 56 | 194 | 4.3 | 8.7 | 0.00 | 0.04 | 0.01 | 72 | 1022.5 |
| 20260501181134 | 57 | 212 | 6.1 | 8.7 | 0.00 | 0.04 | 0.01 | 68 | 1022.5 |
| 20260501180127 | 58 | 180 | 4.3 | 7.0 | 0.00 | 0.04 | 0.01 | 66 | 1022.5 |
| 20260501175145 | 58 | 161 | 6.1 | 8.7 | 0.00 | 0.04 | 0.01 | 66 | 1022.6 |
| 20260501174207 | 59 | 225 | 7.8 | 9.6 | 0.00 | 0.04 | 0.01 | 65 | 1022.7 |
| 20260501173138 | 59 | 249 | 8.7 | 10.4 | 0.00 | 0.04 | 0.01 | 66 | 1022.7 |
| 20260501172131 | 59 | 253 | 7.0 | 10.4 | 0.00 | 0.04 | 0.01 | 64 | 1022.8 |
| 20260501171130 | 59 | 216 | 8.7 | 10.4 | 0.00 | 0.04 | 0.01 | 63 | 1022.9 |
| 20260501170143 | 60 | 246 | 8.7 | 12.2 | 0.00 | 0.04 | 0.01 | 62 | 1023.0 |
| 20260501165206 | 59 | 202 | 7.0 | 10.4 | 0.00 | 0.04 | 0.01 | 65 | 1023.0 |
| 20260501164206 | 59 | 255 | 7.0 | 10.4 | 0.00 | 0.04 | 0.01 | 67 | 1023.1 |